Wind_Speed
4 4 4 4 3 4 3 3 3 3 2 2 2 2 3 3 3 3 2 2 2 1 1 1 0 0 1 1 2 2 2 2 3 3 4 4 5 5 5 4 4 4 4
3 3 3 2 3 3 3 2 2 2 2 2 2 2 2 3 2 2 2 2 2 1 1 0 0 1 1 2 2 2 3 3 3 3 4 5 5 5 5 5 5 5 5
4 3 3 2 2 2 2 1 1 1 1 2 2 2 2 2 2 2 2 2 2 1 1 1 1 1 1 2 2 3 3 3 3 3 4 5 6 6 6 5 6 6 6
4 4 4 3 3 2 1 1 1 1 1 1 1 2 1 1 1 1 2 2 1 1 1 1 2 1 1 2 2 2 2 2 3 3 3 4 6 6 6 6 6 7 7
4 4 4 3 3 3 2 1 1 1 1 1 1 1 1 1 1 2 2 2 1 1 1 1 1 1 2 2 2 2 2 3 3 3 4 4 5 6 5 6 6 7 7
4 4 4 4 4 3 3 2 2 1 1 1 1 1 2 1 1 2 1 1 1 1 1 1 1 2 2 2 2 2 3 3 4 4 4 5 5 6 6 6 6 6 7
5 5 4 5 4 4 3 3 3 1 1 1 1 1 2 2 1 1 1 1 1 1 2 2 2 1 2 2 1 2 3 3 4 5 5 6 6 7 7 7 7 7 7
5 5 5 4 4 4 4 3 2 2 1 1 2 2 2 2 2 1 1 1 1 1 2 2 1 1 2 2 2 2 2 3 4 5 5 6 6 7 8 7 8 8 8
6 6 5 5 4 5 4 3 3 3 3 3 3 3 3 3 2 1 1 1 1 1 2 2 2 3 3 3 2 2 3 4 5 5 6 6 7 7 8 8 8 8 8
6 7 6 6 6 5 5 4 4 4 4 4 3 3 4 3 2 2 1 1 1 1 2 2 2 3 3 3 2 3 3 4 4 5 6 7 7 8 8 8 8 8 8
6 7 7 7 6 6 6 6 5 5 5 4 4 4 4 3 2 2 2 1 1 2 2 2 2 3 3 2 2 3 3 4 4 5 6 6 7 7 8 8 8 8 8
7 7 8 7 7 7 7 6 6 6 6 5 4 4 3 2 2 2 1 1 1 2 2 3 3 3 3 3 2 2 2 3 3 4 5 6 6 7 8 9 9 9 9
8 8 8 8 8 8 7 7 6 6 6 5 4 4 3 3 2 2 2 2 2 2 2 3 3 3 3 3 2 2 2 2 3 4 5 5 6 6 7 8 9 10 10
8 8 8 8 8 8 8 7 6 6 6 5 5 4 4 4 3 3 2 2 2 2 2 2 3 3 3 2 2 2 2 2 3 4 4 5 6 6 7 8 9 10 10
9 9 9 9 9 8 8 7 7 6 6 6 5 5 4 4 3 3 3 3 2 2 2 2 3 3 2 2 2 2 2 2 3 4 4 5 5 6 7 8 9 10 11
10 10 9 9 9 8 8 7 7 7 6 6 6 5 5 5 4 4 4 3 3 3 2 3 3 3 3 3 3 3 2 2 2 3 4 4 4 5 6 7 8 9 10
10 10 9 9 9 9 8 8 7 6 6 6 5 5 4 5 4 4 3 3 3 3 3 3 3 4 3 3 3 3 3 3 2 2 3 4 4 5 6 7 8 9 10
10 10 9 9 9 8 8 8 7 6 6 5 5 5 4 4 4 4 3 3 3 3 3 3 3 3 3 3 3 2 2 2 2 2 2 4 4 5 6 7 7 8 9
10 9 10 10 9 8 8 7 7 6 5 5 5 5 4 4 4 3 3 3 3 3 3 3 3 3 3 3 3 2 2 2 3 3 3 3 4 5 6 6 7 7 8
10 10 10 10 9 8 8 7 7 6 6 5 5 5 4 4 4 4 4 4 4 4 4 4 3 3 3 3 3 2 2 3 3 3 4 4 5 6 6 7 7 7 8
10 10 10 10 9 9 8 8 7 7 6 6 6 5 4 4 4 4 4 4 4 4 4 4 3 3 3 3 3 3 3 4 4 4 4 5 5 6 6 7 7 7 8
10 10 10 10 10 9 9 8 8 7 7 6 6 6 5 5 5 4 4 4 4 4 4 4 4 4 4 4 4 4 4 4 4 4 5 5 6 6 7 7 7 7 8
11 11 10 10 10 10 10 9 8 8 7 7 7 6 6 5 5 4 4 4 4 4 4 4 4 5 5 4 4 4 5 5 5 5 5 6 6 6 7 7 6 7 8
12 12 12 11 11 10 10 10 9 8 8 7 7 6 6 5 5 5 4 5 5 4 5 5 5 5 5 5 5 5 5 5 6 6 6 6 7 6 7 7 7 7 8
13 12 12 11 11 11 11 11 10 10 9 8 8 7 6 5 6 6 6 6 5 5 5 5 5 5 5 5 5 6 6 6 6 6 7 7 7 7 7 8 7 8 9
13 13 13 12 12 12 12 12 12 11 11 10 9 8 8 7 7 7 7 6 6 6 6 5 5 6 6 6 6 6 6 6 7 7 7 7 7 8 8 8 9 9 9
Wind_Direction
140 136 136 135 116 108 114 102 102 102 79 73 73 65 54 38 24 10 18 11 13 46 66 113 254 286 262 247 244 245 234 233 231 219 216 217 217 213 211 211 213 209 205
148 144 160 152 134 112 116 108 91 83 80 61 57 47 42 33 24 15 7 347 357 7 16 71 301 284 260 249 245 246 248 243 236 235 227 223 219 215 214 217 219 217 217
172 175 181 188 185 150 125 115 83 101 80 54 40 27 27 25 9 1 349 336 332 334 323 278 285 286 260 256 247 246 243 235 227 239 238 226 214 211 214 218 219 219 221
193 197 197 203 199 199 167 147 157 132 101 85 44 16 13 355 334 341 340 345 344 322 320 292 285 285 270 263 259 246 243 237 234 233 229 218 210 212 217 220 220 219 221
207 208 208 213 206 205 193 187 191 196 158 152 36 346 335 327 338 345 336 352 346 330 328 319 299 289 286 271 252 238 246 246 245 236 228 218 220 220 219 223 223 225 226
210 211 214 220 216 210 213 209 201 218 216 195 316 328 318 308 322 324 316 330 333 325 342 326 306 292 292 283 248 234 238 246 241 237 231 224 225 228 225 229 231 234 233
208 208 213 218 215 215 218 225 224 221 213 207 272 322 337 326 303 308 304 282 293 320 323 306 300 299 308 306 282 253 251 245 239 240 238 235 233 234 232 234 235 237 238
209 214 217 221 215 224 234 233 217 218 228 246 266 301 323 326 312 284 283 293 298 319 332 330 321 318 315 307 293 272 261 253 245 244 244 241 234 234 233 234 239 241 241
214 217 225 222 229 227 225 228 225 234 236 248 272 293 301 303 302 283 264 271 286 302 333 328 323 323 318 310 287 267 257 253 251 248 247 245 240 241 239 238 241 243 242
215 217 224 227 229 229 236 234 233 244 251 258 276 290 293 294 296 281 253 252 272 287 309 320 323 326 328 314 291 272 263 256 254 250 250 248 246 246 243 240 240 242 244
217 220 225 228 230 235 238 239 240 253 262 262 272 283 285 283 283 273 268 269 278 286 306 316 318 326 329 317 302 282 271 263 257 254 249 246 247 244 242 242 244 246 250
222 223 223 225 230 234 237 238 244 257 263 265 271 276 280 276 268 253 251 263 289 298 317 322 317 319 335 338 322 308 283 269 262 256 250 247 248 249 246 247 250 251 257
227 222 225 227 235 238 240 241 246 256 260 262 266 272 284 282 274 268 259 264 283 299 307 313 315 318 329 335 321 318 297 279 264 257 253 250 253 252 250 250 252 254 258
236 234 232 234 240 242 243 240 244 250 255 256 257 267 277 274 271 273 268 273 279 292 302 313 319 317 319 333 324 325 318 293 275 263 261 258 257 255 255 255 256 255 255
239 241 241 242 246 244 241 241 243 247 253 255 257 264 275 276 272 279 277 270 273 278 291 299 313 316 318 322 320 303 302 293 280 272 265 262 263 264 263 260 262 260 257
240 240 240 243 245 244 241 240 244 246 250 252 252 256 264 270 273 274 272 263 261 269 285 298 305 303 302 300 299 291 285 293 290 283 273 271 266 273 273 270 269 266 263
239 240 242 240 244 243 242 244 245 245 247 248 251 252 261 267 265 265 264 261 260 264 276 294 301 297 296 298 305 296 282 289 303 291 285 276 275 276 278 279 275 272 268
238 238 237 239 244 247 242 240 242 244 245 244 246 250 256 265 266 265 265 259 264 266 274 289 301 298 294 304 310 316 311 302 306 307 275 275 275 278 281 280 277 275 271
235 233 234 238 242 244 241 239 239 240 238 239 245 250 252 257 262 263 264 260 260 269 277 284 291 296 298 304 311 318 312 306 307 313 303 289 277 281 284 286 286 280 277
233 234 233 234 235 237 238 236 237 238 237 241 247 247 248 250 256 259 260 258 259 267 274 276 279 283 285 292 300 309 308 303 305 309 305 297 289 287 287 291 291 287 283
233 232 231 233 234 233 235 233 234 234 234 240 248 251 248 250 256 261 260 260 265 267 266 262 267 275 281 297 298 297 295 299 299 300 297 296 295 294 295 298 296 292 289
232 232 232 231 233 233 232 231 231 230 232 240 242 246 250 252 256 259 262 266 267 265 264 265 265 271 278 286 293 295 295 295 294 293 296 295 294 295 300 304 301 298 294
232 233 234 234 234 232 230 229 228 233 238 239 241 247 252 251 251 257 264 268 273 269 268 269 268 274 276 284 288 292 299 299 296 295 296 297 297 298 302 300 295 290 289
236 236 234 234 233 232 231 231 234 237 239 240 243 250 257 254 251 262 268 267 272 272 270 274 274 274 274 278 286 293 295 295 297 293 292 296 299 299 302 303 299 298 292
238 238 235 235 234 233 233 234 236 238 240 241 243 250 253 252 253 259 265 266 267 271 273 277 276 275 274 277 289 295 293 293 294 293 291 291 293 295 301 308 305 303 303
240 239 238 237 236 235 235 237 238 239 238 241 246 249 252 252 254 255 259 265 263 268 275 278 277 277 278 280 288 294 294 295 293 291 292 293 296 299 302 306 307 307 306
Height
5897 5896 5896 5895 5895 5896 5896 5896 5896 5895 5895 5894 5894 5893 5893 5892 5892 5891 5891 5890 5890 5889 5889 5889 5889 5889 5889 5889 5889 5889 5889 5889 5889 5889 5889 5889 5889 5889 5890 5890 5890 5890 5890
5897 5896 5896 5896 5896 5896 5896 5896 5895 5895 5895 5894 5894 5893 5893 5892 5892 5891 5891 5890 5890 5889 5889 5889 5889 5888 5888 5888 5888 5888 5888 5888 5888 5888 5888 5888 5888 5889 5889 5889 5889 5890 5890
5897 5896 5896 5896 5896 5896 5895 5895 5895 5895 5895 5894 5894 5893 5892 5892 5891 5891 5891 5890 5889 5889 5888 5888 5888 5888 5888 5888 5888 5888 5887 5887 5887 5887 5886 5885 5886 5888 5889 5889 5889 5889 5889
5896 5896 5896 5896 5896 5895 5895 5895 5895 5895 5894 5894 5894 5893 5892 5892 5891 5891 5890 5890 5889 5888 5888 5888 5887 5887 5887 5887 5887 5887 5887 5887 5887 5886 5886 5884 5885 5887 5888 5888 5888 5888 5889
5896 5896 5896 5896 5895 5895 5895 5895 5895 5894 5894 5894 5894 5893 5892 5892 5891 5891 5890 5889 5889 5888 5888 5887 5887 5887 5886 5886 5886 5886 5886 5886 5886 5886 5886 5885 5886 5887 5887 5888 5888 5888 5888
5895 5895 5895 5895 5895 5894 5894 5894 5894 5894 5894 5894 5893 5893 5892 5892 5891 5890 5890 5889 5889 5888 5887 5887 5886 5886 5886 5885 5885 5885 5885 5885 5885 5885 5885 5885 5886 5886 5887 5887 5887 5887 5887
5894 5895 5895 5895 5895 5894 5894 5894 5894 5894 5894 5893 5893 5893 5892 5891 5890 5890 5889 5889 5888 5888 5887 5886 5886 5885 5885 5885 5884 5884 5884 5885 5885 5885 5885 5885 5885 5885 5886 5886 5886 5886 5886
5894 5894 5894 5894 5894 5894 5894 5894 5894 5894 5894 5893 5893 5892 5892 5891 5890 5890 5889 5889 5888 5887 5887 5886 5886 5885 5884 5884 5884 5884 5884 5884 5884 5884 5884 5884 5884 5884 5885 5885 5885 5885 5885
5893 5893 5893 5894 5894 5893 5893 5894 5894 5893 5893 5893 5892 5892 5891 5890 5889 5889 5889 5888 5888 5887 5887 5886 5885 5885 5884 5883 5883 5883 5883 5883 5883 5883 5883 5883 5883 5883 5883 5884 5884 5884 5884
5892 5892 5892 5893 5893 5893 5893 5893 5893 5893 5892 5892 5892 5891 5890 5889 5889 5888 5888 5888 5887 5887 5886 5886 5885 5884 5884 5883 5883 5882 5882 5882 5882 5882 5882 5882 5882 5882 5882 5882 5883 5883 5883
5891 5891 5892 5892 5892 5892 5892 5892 5892 5892 5892 5891 5891 5890 5889 5889 5888 5888 5887 5887 5887 5887 5886 5886 5885 5884 5883 5883 5882 5882 5881 5881 5881 5881 5881 5881 5881 5881 5881 5881 5881 5881 5881
5890 5890 5890 5890 5891 5891 5891 5891 5891 5891 5891 5891 5890 5890 5889 5888 5888 5887 5887 5887 5887 5886 5886 5885 5885 5884 5883 5882 5882 5881 5881 5880 5880 5880 5880 5880 5880 5880 5880 5880 5880 5880 5880
5888 5889 5889 5889 5890 5890 5890 5890 5890 5890 5890 5890 5889 5889 5888 5888 5887 5887 5887 5887 5886 5886 5886 5885 5884 5884 5883 5882 5881 5881 5880 5880 5879 5879 5879 5879 5879 5879 5878 5878 5878 5878 5878
5887 5888 5888 5888 5889 5889 5889 5889 5889 5889 5889 5889 5889 5888 5888 5888 5887 5887 5886 5886 5886 5886 5885 5885 5884 5883 5882 5882 5881 5880 5880 5879 5879 5878 5878 5878 5878 5878 5877 5877 5877 5877 5877
5886 5886 5887 5887 5888 5888 5888 5888 5888 5888 5888 5888 5888 5888 5887 5887 5887 5886 5886 5886 5886 5885 5885 5884 5884 5883 5882 5882 5881 5880 5880 5879 5878 5878 5877 5877 5877 5876 5876 5875 5875 5875 5875
5884 5885 5885 5886 5886 5886 5887 5887 5887 5887 5887 5887 5887 5887 5887 5886 5886 5886 5886 5886 5885 5885 5884 5884 5883 5882 5882 5881 5880 5880 5879 5878 5878 5877 5876 5876 5875 5875 5874 5874 5873 5873 5873
5882 5883 5884 5884 5884 5885 5885 5886 5886 5886 5886 5886 5886 5886 5886 5886 5885 5885 5885 5885 5884 5884 5884 5883 5882 5882 5881 5880 5879 5879 5878 5877 5876 5876 5875 5874 5874 5874 5873 5872 5872 5871 5870
5881 5881 5882 5883 5883 5884 5884 5884 5884 5885 5885 5885 5885 5885 5885 5885 5884 5884 5884 5884 5884 5883 5883 5883 5882 5881 5880 5879 5879 5878 5877 5877 5876 5874 5874 5873 5873 5872 5872 5871 5870 5869 5868
5879 5880 5880 5881 5882 5882 5883 5883 5883 5884 5884 5884 5884 5884 5884 5884 5884 5883 5883 5883 5883 5882 5882 5882 5881 5880 5880 5879 5878 5877 5877 5876 5875 5874 5873 5873 5872 5871 5870 5869 5868 5867 5866
5877 5878 5879 5880 5880 5881 5881 5882 5882 5883 5883 5883 5883 5883 5882 5883 5883 5882 5882 5882 5882 5882 5881 5881 5880 5880 5879 5878 5878 5877 5876 5876 5875 5874 5873 5872 5871 5870 5869 5868 5866 5865 5864
5875 5876 5877 5878 5879 5879 5880 5880 5881 5881 5882 5882 5882 5882 5882 5881 5881 5881 5881 5881 5881 5880 5880 5880 5879 5879 5878 5878 5877 5876 5876 5875 5874 5873 5872 5871 5870 5869 5868 5866 5865 5864 5862
5874 5875 5875 5876 5877 5878 5878 5879 5879 5880 5880 5880 5880 5880 5880 5880 5880 5880 5880 5880 5879 5879 5879 5879 5878 5878 5877 5877 5876 5876 5875 5875 5873 5872 5871 5870 5869 5868 5866 5865 5863 5862 5861
5872 5873 5874 5875 5875 5876 5877 5877 5878 5879 5879 5879 5879 5879 5879 5879 5879 5879 5879 5879 5878 5878 5878 5878 5877 5877 5877 5876 5875 5875 5874 5873 5872 5871 5870 5869 5868 5866 5865 5863 5862 5861 5859
5870 5871 5872 5873 5873 5874 5875 5876 5876 5877 5877 5878 5878 5878 5878 5878 5878 5878 5878 5878 5877 5877 5877 5876 5876 5876 5875 5875 5874 5873 5873 5872 5871 5870 5869 5868 5866 5865 5864 5862 5861 5859 5857
5867 5868 5869 5870 5871 5872 5873 5874 5874 5875 5876 5876 5876 5876 5876 5876 5876 5876 5876 5876 5876 5876 5876 5875 5875 5874 5874 5874 5873 5872 5871 5870 5869 5868 5867 5866 5865 5864 5863 5861 5859 5857 5856
5865 5866 5867 5868 5869 5870 5871 5872 5872 5873 5874 5874 5874 5875 5875 5875 5875 5875 5875 5875 5874 5874 5874 5874 5873 5873 5872 5872 5871 5871 5870 5869 5868 5867 5866 5865 5864 5863 5861 5860 5858 5856 5855